Home   Weather   Steinbach   Past weeks

Flag for Canada Past Weather in Steinbach, Manitoba, Canada — Yesterday and Last 2 Weeks

Now
10 °F

Frigid.


Feels Like: 10 °F
Forecast: 3 / 15 °F
Wind: 2 mph from North

Location: Winnipeg The Forks Man

Current Time: Feb 24, 2017 at 5:04:26 am

Latest Report: Feb 24, 2017 at 4:00 am


Visibility: N/A

Pressure: 30.23 "Hg

Humidity: 73%

Dew Point: 3 °F

Location of SteinbachLocation

Past Weather in Steinbach — Graph

°F

Steinbach Temperature Yesterday

Maximum temperature yesterday: 26 °F (at 12:00 am)
Minimum temperature yesterday: 14 °F (at 11:00 pm)
Average temperature yesterday: 21 °F

High & Low Weather Summary for the Past Weeks

 TemperatureHumidityPressure
High43 °F (Feb 17, 5:00 pm)96% (Feb 20, 5:00 pm)30.24 "Hg (Feb 20, 5:00 pm)
Low-6 °F (Feb 9, 6:00 am)46% (Feb 14, 8:00 am)29.26 "Hg (Feb 17, 2:00 pm)
Average27 °F74%29.80 "Hg
* Reported Feb 9 4:00 am — Feb 24 4:00 am, Steinbach, Weather by CustomWeather, © 2017

Note: Actual official high and low records may vary slightly from our data, if they occured in-between our weather recording intervals... More about our weather records

Advertising

Steinbach Weather History for the Previous 24 Hours

Scroll right to see more
 ConditionsComfort  
Time TempWeatherWind HumidityBarometerVisibility
4:00 am
Fri, Feb 24
10 °FFrigid.2 mph73%30.23 "HgN/A
3:00 am11 °FCold.3 mph70%30.23 "HgN/A
2:00 am11 °FCold.2 mph77%30.24 "HgN/A
1:00 am12 °FCold.3 mph71%30.22 "HgN/A
12:00 am12 °FCold.2 mph74%30.20 "HgN/A
11:00 pm
Thu, Feb 23
14 °FCold.2 mph72%30.22 "HgN/A
10:00 pm15 °FCold.2 mph69%30.21 "HgN/A
9:00 pm16 °FCold.1 mph70%30.21 "HgN/A
8:00 pm18 °FCold.2 mph64%30.21 "HgN/A
7:00 pm19 °FCold.3 mph66%30.20 "HgN/A
6:00 pm21 °FCold.5 mph60%30.18 "HgN/A
5:00 pm22 °FCold.7 mph57%30.17 "HgN/A
4:00 pm22 °FCold.6 mph60%30.17 "HgN/A
3:00 pm22 °FCold.7 mph56%30.14 "HgN/A
2:00 pm21 °FCold.6 mph64%30.14 "HgN/A
1:00 pm21 °FCold.3 mph67%30.16 "HgN/A
12:00 pm21 °FCold.7 mph67%30.15 "HgN/A
11:00 am22 °FCold.6 mph62%30.14 "HgN/A
10:00 am21 °FCold.6 mph62%30.15 "HgN/A
9:00 am20 °FCold.6 mph77%30.16 "HgN/A
8:00 am21 °FCold.3 mph76%30.15 "HgN/A
7:00 am21 °FCold.3 mph75%30.11 "HgN/A
6:00 am22 °FCold.6 mph78%30.07 "HgN/A
5:00 am23 °FCold.3 mph84%30.07 "HgN/A
Weather by CustomWeather, © 2017

See weather overviewHow to use our weather pages